Location: Casaglia
(44.0333°N, 11.5167°E)
Time: 02:45:06
(UTC+00:00)

IRS-1D - Pass Details

Date: 07 June 2020
Orbit: 740 x 816 km, 98.6° (Epoch: 05 July)

Event Time Altitude Azimuth Distance (km) Brightness Sun altitude
Rises 01:06:40 0° 17° (NNE) 3,327 8.4 -18.3°
Reaches altitude 10° 01:09:06 10° 22° (NNE) 2,382 7.3 -18.1°
Maximum altitude 01:14:15 54° 100° (E) 950 4.0 -17.6°
Enters shadow 01:17:31 22° 171° (S) 1,671 4.8 -17.3°
